Location: Unspecified
(22.6800°N, 112.2000°E)
Time: 11:36:21
(UTC+08:00)

Transit 2A - Pass Details

Date: 06 August 2021
Orbit: 595 x 963 km, 66.7° (Epoch: 16 September)

Event Time Altitude Azimuth Distance (km) Brightness Sun altitude
Rises 03:35:51 0° 159° (SSE) 2,826 - -31.2°
Reaches altitude 10° 03:39:28 10° 127° (SE) 1,919 - -30.5°
Exits shadow 03:40:00 11° 120° (ESE) 1,856 8.2 -30.4°
Maximum altitude 03:41:03 12° 105° (ESE) 1,807 8.3 -30.2°
Drops below altitude 10° 03:42:37 10° 84° (E) 1,933 8.8 -29.9°
Sets 03:46:17 0° 52° (NE) 2,874 10.2 -29.2°
